{"data":{"norad_id":49735,"epoch":"2026-05-25T01:58:15.276000Z","epoch_age_seconds":61222,"freshness":"FRESH","line1":"1 49735U 21115M   26145.08212125  .00001105  00000+0  87497-4 0  9992","line2":"2 49735  53.2137 176.0666 0001298  74.1667 285.9468 15.08848687246924","mean_motion":15.08848687,"eccentricity":0.0001298,"inclination_deg":53.2137,"raan_deg":176.0666,"arg_perigee_deg":74.1667,"mean_anomaly_deg":285.9468,"bstar":8.7497e-5,"rev_number":24692,"period_min":95.437005208462,"perigee_km":538.81889897982,"apogee_km":540.61477383575,"semimajor_km":6917.8538364078,"source":"CELESTRAK","updated_at":"2026-05-25T13:38:16.833201Z"}}